User: anonymous   Login
Location: Caltech
(34.1382°N, 118.1253°W)
Time: 16:08:55
(UTC-07:00)
Language:

Gbstr 26 Del rocket - Orbit

View from above orbital plane
View from above orbital plane
View from above satellite
View from above satellite

Ground track
Ground track

The orbit data is extracted from the following two-line orbital elements,

1 25876U 99041E   15179.69528227  .00000260  00000-0  87015-4 0  9998
2 25876 051.7642 274.2033 0535728 092.0413 274.1927 14.03334890813565
Epoch (UTC): 28 June 2015 16:41:12
Eccentricity: 0.0535728
inclination: 51.7642°
perigee height: 493 km
apogee height: 1271 km
right ascension of ascending node: 274.2033°
argument of perigee: 92.0413°
revolutions per day: 14.03334890
mean anomaly at epoch: 274.1927°
orbit number at epoch: 81356

The dashed part of the orbit path shows where the satellite is in the earth's shadow,  

DLR